Flag for Denmark Weather past 2 weeks in Hirtshals, Denmark

Now
53 °F

Cool.


Feels Like: 49 °F
Forecast: 53 / 56 °F
Wind: 13 mph from South

Location: Aalborg

Current Time: Sep 23, 2014 at 10:54:40 PM

Latest Report: Sep 23, 2014 at 10:00 PM


Visibility: N/A

Pressure: 29.87 "Hg

Humidity: 95%

Dew point: 52 °F

Location of HirtshalsLocation

Historic Weather in Hirtshals — Graph

°F

Hirtshals temperature yesterday

Maximum temperature yesterday: 57 °F (at 2:00 PM)
Minimum temperature yesterday: 45 °F (at 9:00 PM)
Average temperature yesterday: 53 °F

Past Weeks' High & Low Weather Summary

 TemperatureHumidityPressure
High70 °F (Sep 12, 5:00 PM)98% (Sep 12, 7:00 AM)30.40 "Hg (Sep 12, 7:00 AM)
Low38 °F (Sep 23, 7:00 AM)51% (Sep 19, 3:00 PM)29.80 "Hg (Sep 9, 7:00 AM)
Average58 °F82%30.12 "Hg
* Reported Sep 8 9:00 PM — Sep 23 9:00 PM, Hirtshals, Weather by CustomWeather, © 2014

Note: Actual official high and low records may vary slightly from our data, if they occured in-between our weather recording intervals... More about our weather records

Advertising

Hirtshals weather history for previous 24 hours

 ConditionsComfort  
Time TempWeatherWind HumidityBarometerVisibility
9:00 PM
Sep 23
53 °FCool.9 mph92%29.90 "HgN/A
8:00 PM53 °FLight rain. Overcast.10 mph91%29.92 "Hg5 mi
7:00 PM54 °FCool.12 mph88%29.93 "HgN/A
6:00 PM54 °FCool.12 mph84%29.95 "HgN/A
5:00 PM58 °FLight rain. Overcast.10 mph72%29.96 "Hg11 mi
4:00 PM59 °FCool.13 mph62%29.98 "HgN/A
3:00 PM60 °FCool.13 mph62%29.99 "HgN/A
2:00 PM58 °FPartly sunny.9 mph67%30.00 "Hg12 mi
1:00 PM58 °FCool.10 mph69%30.01 "HgN/A
12:00 PM57 °FCool.12 mph64%30.03 "HgN/A
11:00 AM55 °FOvercast.12 mph62%30.03 "Hg12 mi
10:00 AM54 °FCool.8 mph64%30.04 "HgN/A
9:00 AM45 °FCool.3 mph92%30.04 "HgN/A
8:00 AM39 °FFog.2 mph96%30.05 "Hg12 mi
7:00 AM38 °FChilly.2 mph95%30.05 "HgN/A
6:00 AM40 °FChilly.1 mph93%30.05 "HgN/A
5:00 AM40 °FPassing clouds.1 mph92%30.05 "Hg6 mi
4:00 AM39 °FChilly.1 mph89%30.06 "HgN/A
3:00 AM41 °FQuite cool.No wind90%30.07 "HgN/A
2:00 AM40 °FPassing clouds.1 mph89%30.06 "Hg6 mi
1:00 AM43 °FQuite cool.2 mph85%30.06 "HgN/A
12:00 AM45 °FCool.2 mph83%30.06 "HgN/A
11:00 PM
Sep 22
49 °FPassing clouds.3 mph69%30.07 "Hg12 mi
10:00 PM47 °FCool.3 mph74%30.06 "HgN/A
Weather by CustomWeather, © 2014

See weather overviewHow to use our weather pages